Weather History for KTNU - November, 2012

Change the Weather History Date:

Wednesday, November 21, 2012

  Actual Average (KDSM) Record (KDSM)
Temperature  
Mean Temperature 52 °F 36 °F  
Max Temperature 71 °F 45 °F 74 °F (1990)
Min Temperature 32 °F 28 °F -1 °F (1937)
Degree Days  
Heating Degree Days 14 29  
Month to date heating degree days 491  
Since 1 July heating degree days 975  
Cooling Degree Days 0 0  
Month to date cooling degree days 0  
Year to date cooling degree days 1066  
Growing Degree Days 2 (Base 50)    
Moisture  
Dew Point 38 °F    
Average Humidity 70    
Maximum Humidity 100    
Minimum Humidity 31    
Precipitation  
Precipitation 0.00 in 0.07 in 1.06 in (1898)
Month to date precipitation 1.62  
Year to date precipitation 34.03  
Snow  
Snow 0.00 in 0.10 in 4.80 in (2007)
Month to date snowfall 1.1  
Since 1 July snowfall 1.5  
Since 1 September snowfall 1.5  
Snow Depth -    
Sea Level Pressure  
Sea Level Pressure 30.06 in    
Wind  
Wind Speed 10 mph (South)    
Max Wind Speed 20 mph    
Max Gust Speed 30 mph    
Visibility 7 miles    
Events      
T = Trace of Precipitation, MM = Missing Value Source: NWS Daily Summary

Daily Weather History Graph

Daily Weather History Graph

Search for Another Location

Airport or City:

Trip Planner

Search our weather history database for the weather conditions in past years. The results will help you decide how hot, cold, wet, or windy it might be!

Date:

Astronomy

Nov. 21, 2012 Rise Set
Actual Time 7:08 AM CST 4:46 PM CST
Civil Twilight 6:38 AM CST 5:17 PM CST
Nautical Twilight 6:04 AM CST 5:51 PM CST
Astronomical Twilight 5:31 AM CST 6:24 PM CST
Moon 1:08 PM CST (11/21) 12:23 AM CST (11/21)
Length of Visible Light 10h 38m
Length of Day
9h 37m
First Quarter, 62% of the Moon is Illuminated
Nov 21
First Quarter
Nov 28
Full
Dec 6
Last Quarter
Dec 13
New
Dec 19
First Quarter

Hourly Weather History & Observations

Time (CST) Temp. Windchill Dew Point Humidity Pressure Visibility Wind Dir Wind Speed Gust Speed Precip Events Conditions
12:15 AM 35.6 °F 28.6 °F 33.8 °F 93% 30.17 in 3.0 mi SSE 9.2 mph - N/A   Clear
12:35 AM 33.8 °F 27.0 °F 33.8 °F 100% 30.16 in 2.0 mi SSE 8.1 mph - N/A   Clear
12:55 AM 35.6 °F 30.7 °F 33.8 °F 93% 30.16 in 3.0 mi SSE 5.8 mph - N/A   Clear
1:15 AM 35.6 °F 30.7 °F 33.8 °F 93% 30.16 in 3.0 mi SSE 5.8 mph - N/A   Clear
1:35 AM 33.8 °F 25.3 °F 33.8 °F 100% 30.14 in 3.0 mi SSE 11.5 mph - N/A   Clear
1:55 AM 35.6 °F 29.9 °F 33.8 °F 93% 30.15 in 3.0 mi South 6.9 mph - N/A   Clear
2:15 AM 35.6 °F 30.7 °F 33.8 °F 93% 30.15 in 3.0 mi SSE 5.8 mph - N/A   Clear
2:35 AM 35.6 °F 30.7 °F 33.8 °F 93% 30.15 in 3.0 mi SSE 5.8 mph - N/A   Clear
2:55 AM 33.8 °F 28.6 °F 33.8 °F 100% 30.15 in 3.0 mi SSE 5.8 mph - N/A   Clear
3:15 AM 33.8 °F 27.0 °F 33.8 °F 100% 30.15 in 3.0 mi SSE 8.1 mph - N/A   Clear
3:35 AM 33.8 °F 28.6 °F 33.8 °F 100% 30.15 in 2.5 mi SSE 5.8 mph - N/A   Clear
3:55 AM 33.8 °F 29.6 °F 32.0 °F 93% 30.15 in 2.0 mi South 4.6 mph - N/A   Clear
4:15 AM 33.8 °F 27.7 °F 33.8 °F 100% 30.15 in 2.5 mi SSE 6.9 mph - N/A   Clear
4:35 AM 33.8 °F 28.6 °F 32.0 °F 93% 30.15 in 2.5 mi SSE 5.8 mph - N/A   Clear
4:55 AM 32.0 °F 24.8 °F 32.0 °F 100% 30.15 in 2.0 mi SSE 8.1 mph - N/A   Clear
5:15 AM 32.0 °F 26.4 °F 32.0 °F 100% 30.15 in 2.0 mi SSE 5.8 mph - N/A   Clear
5:35 AM 32.0 °F 25.6 °F 32.0 °F 100% 30.15 in 2.0 mi SSE 6.9 mph - N/A   Clear
5:55 AM 32.0 °F 26.4 °F 32.0 °F 100% 30.15 in 2.5 mi South 5.8 mph - N/A   Clear
6:15 AM 32.0 °F 27.5 °F 32.0 °F 100% 30.14 in 3.0 mi South 4.6 mph - N/A   Clear
6:35 AM 33.8 °F 27.7 °F 33.8 °F 100% 30.14 in 3.0 mi SSE 6.9 mph - N/A   Clear
6:55 AM 33.8 °F 29.6 °F 33.8 °F 100% 30.14 in 3.0 mi South 4.6 mph - N/A   Clear
7:15 AM 33.8 °F 27.7 °F 33.8 °F 100% 30.14 in 3.0 mi South 6.9 mph - N/A   Clear
7:35 AM 35.6 °F 29.2 °F 35.6 °F 100% 30.14 in 3.0 mi South 8.1 mph - N/A   Clear
7:55 AM 37.4 °F 32.1 °F 35.6 °F 93% 30.14 in 3.0 mi South 6.9 mph - N/A   Clear
8:15 AM 39.2 °F 34.2 °F 37.4 °F 93% 30.14 in 4.0 mi South 6.9 mph - N/A   Clear
8:35 AM 41.0 °F 35.8 °F 39.2 °F 93% 30.14 in 5.0 mi South 8.1 mph - N/A   Clear
8:55 AM 44.6 °F 40.2 °F 41.0 °F 87% 30.14 in 6.0 mi South 8.1 mph - N/A   Clear
9:15 AM 46.4 °F - 41.0 °F 81% 30.13 in 7.0 mi North - - N/A   Clear
9:35 AM 48.2 °F - 42.8 °F 82% 30.13 in 8.0 mi South 9.2 mph - N/A   Clear
9:55 AM 50.0 °F - 42.8 °F 76% 30.13 in 9.0 mi South 11.5 mph - N/A   Clear
10:15 AM 53.6 °F - 44.6 °F 72% 30.13 in 9.0 mi South 11.5 mph - N/A   Clear
10:35 AM 57.2 °F - 42.8 °F 59% 30.12 in 10.0 mi SSW 13.8 mph - N/A   Clear
10:55 AM 59.0 °F - 44.6 °F 59% 30.11 in 10.0 mi SSW 11.5 mph - N/A   Clear
11:15 AM 60.8 °F - 42.8 °F 52% 30.10 in 10.0 mi SSW 13.8 mph - N/A   Clear
11:35 AM 62.6 °F - 42.8 °F 48% 30.09 in 10.0 mi SSW 11.5 mph - N/A   Clear
11:55 AM 64.4 °F - 42.8 °F 45% 30.08 in 10.0 mi SSW 11.5 mph - N/A   Clear
12:15 PM 66.2 °F - 42.8 °F 43% 30.07 in 10.0 mi SSW 13.8 mph - N/A   Clear
12:35 PM 69.8 °F - 39.2 °F 33% 30.06 in 10.0 mi SSW 19.6 mph 25.3 mph N/A   Clear
12:55 PM 69.8 °F - 39.2 °F 33% 30.05 in 10.0 mi SSW 18.4 mph 28.8 mph N/A   Clear
1:15 PM 69.8 °F - 39.2 °F 33% 30.04 in 10.0 mi SSW 15.0 mph 26.5 mph N/A   Clear
1:35 PM 69.8 °F - 39.2 °F 33% 30.03 in 10.0 mi SW 18.4 mph 29.9 mph N/A   Clear
1:55 PM 71.6 °F - 39.2 °F 31% 30.02 in 10.0 mi SSW 17.3 mph - N/A   Clear
2:15 PM 69.8 °F - 39.2 °F 33% 30.01 in 10.0 mi SSW 13.8 mph 21.9 mph N/A   Clear
2:35 PM 69.8 °F - 39.2 °F 33% 30.01 in 10.0 mi South 16.1 mph 23.0 mph N/A   Clear
2:55 PM 69.8 °F - 39.2 °F 33% 30.00 in 10.0 mi South 16.1 mph 23.0 mph N/A   Clear
3:15 PM 68.0 °F - 39.2 °F 35% 30.00 in 10.0 mi South 13.8 mph 19.6 mph N/A   Clear
3:35 PM 68.0 °F - 39.2 °F 35% 29.99 in 10.0 mi South 13.8 mph - N/A   Clear
4:15 PM 64.4 °F - 39.2 °F 40% 29.99 in 10.0 mi South 12.7 mph 18.4 mph N/A   Clear
4:35 PM 60.8 °F - 41.0 °F 48% 29.99 in 10.0 mi South 12.7 mph - N/A   Clear
4:55 PM 59.0 °F - 41.0 °F 51% 29.99 in 10.0 mi South 13.8 mph - N/A   Clear
5:15 PM 55.4 °F - 39.2 °F 54% 29.98 in 10.0 mi South 10.4 mph - N/A   Clear
5:35 PM 55.4 °F - 41.0 °F 58% 29.98 in 10.0 mi South 11.5 mph - N/A   Clear
5:55 PM 55.4 °F - 41.0 °F 58% 29.97 in 10.0 mi South 12.7 mph - N/A   Clear
6:15 PM 55.4 °F - 41.0 °F 58% 29.97 in 10.0 mi South 13.8 mph - N/A   Clear
6:35 PM 53.6 °F - 41.0 °F 62% 29.97 in 10.0 mi South 12.7 mph - N/A   Clear
6:55 PM 53.6 °F - 39.2 °F 58% 29.96 in 10.0 mi South 13.8 mph - N/A   Clear
7:15 PM 51.8 °F - 39.2 °F 62% 29.96 in 10.0 mi South 12.7 mph - N/A   Clear
7:35 PM 50.0 °F - 39.2 °F 66% 29.96 in 10.0 mi South 10.4 mph - N/A   Clear
7:55 PM 50.0 °F - 39.2 °F 66% 29.97 in 10.0 mi South 11.5 mph - N/A   Clear
8:15 PM 50.0 °F - 41.0 °F 71% 29.97 in 10.0 mi South 12.7 mph - N/A   Clear
8:35 PM 50.0 °F - 41.0 °F 71% 29.96 in 10.0 mi South 12.7 mph - N/A   Clear
8:55 PM 51.8 °F - 41.0 °F 67% 29.96 in 10.0 mi South 12.7 mph - N/A   Clear
9:15 PM 53.6 °F - 41.0 °F 62% 29.96 in 10.0 mi South 16.1 mph - N/A   Clear
9:35 PM 53.6 °F - 41.0 °F 62% 29.96 in 10.0 mi South 16.1 mph - N/A   Clear
9:55 PM 53.6 °F - 41.0 °F 62% 29.95 in 10.0 mi South 16.1 mph - N/A   Clear
10:15 PM 53.6 °F - 41.0 °F 62% 29.94 in 10.0 mi South 17.3 mph - N/A   Clear
10:35 PM 53.6 °F - 41.0 °F 62% 29.93 in 10.0 mi South 17.3 mph - N/A   Clear
10:55 PM 51.8 °F - 39.2 °F 62% 29.93 in 10.0 mi South 16.1 mph 21.9 mph N/A   Clear
11:15 PM 53.6 °F - 39.2 °F 58% 29.93 in 10.0 mi South 15.0 mph - N/A   Clear
11:35 PM 53.6 °F - 39.2 °F 58% 29.92 in 10.0 mi South 15.0 mph - N/A   Clear
11:55 PM 51.8 °F - 39.2 °F 62% 29.92 in 10.0 mi South 12.7 mph 18.4 mph N/A   Clear